[[{"header":{"parameterUnit":"m.s-1","parameterCategory":1,"la1":30.2991,"la2":30.254,"lo1":-89.0895,"lo2":-89.0444,"dy":0.0017,"dx":0.0017,"nx":28,"ny":28,"refTime":"2025-04-27T21:00:00:Z","depth":0,"parameterNumber":2,"parameterNumberName":"U-component_of_WINDS"},"data":[0,0,0,0,0,0,0,0,0,0,0,0,0,0,0,0,0,0,0,0,0,0,0,0,0,0,0,0,0,0,0,0,0,0,0,0,0,0,0,0,0,0,0,0,0,0,0,0,0,0,0,0,0,0,0,0,0,0,1.2395,1.2397,0,1.2594,1.2596,1.2598,1.2666,1.2665,1.2664,1.2663,1.2868,1.2874,1.288,0,0,0,0,0,0,0,0,0,0,0,0,0,1.2076,1.2081,1.2395,1.2397,1.24,1.2593,1.2596,1.2599,1.2666,1.2665,1.2664,1.2663,1.2866,1.2873,1.288,0,0,0,0,0,0,0,0,0,0,0,0,0,1.2238,1.2083,1.2395,1.2457,1.2464,1.2593,1.2596,1.2599,1.2666,1.2665,1.2664,1.2662,1.2863,1.2872,1.2881,1.2963,0,0,1.291,1.2914,0,0,0,0,0,0,0,0,1.2229,1.225,1.2445,1.2453,1.2461,1.2604,1.2558,1.2721,1.2666,1.2589,1.2663,1.2662,1.2781,1.2797,1.2837,1.2972,1.2981,1.2911,1.2916,1.292,1.2923,0,0,0,0,0,0,0,1.2218,1.2242,1.2474,1.2448,1.2458,1.2475,1.2497,1.259,1.269,1.2596,1.2601,1.2624,1.2785,1.2828,1.2842,1.2984,1.291,1.2919,1.2924,1.2928,1.3198,1.3199,0,0,0,0,0,0,1.2196,1.2232,1.2467,1.248,1.234,1.2482,1.2506,1.2559,1.2689,1.2707,1.2625,1.2626,1.2812,1.2831,1.2849,1.2954,1.292,1.2929,1.2934,1.3196,1.3198,1.32,0,0,0,0,0,0,1.2189,1.2216,1.2459,1.2357,1.239,1.2489,1.2548,1.2564,1.2606,1.271,1.2729,1.265,1.2812,1.2836,1.2934,1.2962,1.2933,1.2941,1.3194,1.3197,1.3199,1.3163,0,0,0,0,0,0,1.2179,1.2213,1.2244,1.2357,1.2395,1.254,1.2549,1.2568,1.2622,1.2626,1.2739,1.2756,1.2813,1.292,1.2943,1.2974,1.2949,1.3192,1.3195,1.3198,1.3162,1.3164,1.3165,0,0,0,0,0,1.2167,1.2226,1.2246,1.2274,1.2436,1.2542,1.2563,1.2627,1.2624,1.2657,1.2724,1.2753,1.2955,1.2929,1.2957,1.299,1.3191,1.3195,1.3198,1.3161,1.3163,1.3165,0,0,0,0,0,0,1.2114,1.2242,1.2265,1.2362,1.244,1.2553,1.2596,1.2627,1.2708,1.2708,1.2784,1.2809,1.2901,1.2956,1.2925,1.3077,1.3075,1.3084,1.3037,1.304,1.3042,1.3027,1.2956,0,0,0,0,0,1.2113,1.2188,1.2296,1.2372,1.241,1.2496,1.2544,1.2587,1.2671,1.2704,1.2779,1.286,1.2942,1.2994,1.3075,1.317,1.3196,1.3207,1.3209,1.3209,1.3216,1.3272,1.3278,1.3212,1.3212,1.3212,0,0,1.2113,1.2193,1.2235,1.2363,1.2429,1.2505,1.2523,1.2603,1.266,1.2717,1.2814,1.2871,1.2966,1.3063,1.311,1.3112,1.324,1.3214,1.3214,1.3221,1.3276,1.3282,1.3287,1.3214,1.3214,1.3213,0,0,1.2152,1.2219,1.2289,1.2355,1.2454,1.2511,1.2528,1.2636,1.2676,1.2775,1.2819,1.2889,1.3028,1.3095,1.3147,1.3211,1.3241,1.3236,1.3244,1.3297,1.3302,1.3307,1.333,1.3338,1.3242,1.3242,1.3242,0,1.2139,1.2255,1.2322,1.2399,1.2455,1.251,1.2582,1.2642,1.2763,1.28,1.28,1.2977,1.3045,1.3159,1.3175,1.3215,1.3237,1.3223,1.3296,1.3301,1.3307,1.333,1.3339,1.3241,1.3241,1.3241,1.3241,0,1.2234,1.2314,1.2359,1.2474,1.2535,1.2609,1.2688,1.2742,1.2779,1.2836,1.2936,1.302,1.312,1.315,1.3187,1.3269,1.3267,1.3281,1.328,1.3311,1.3334,1.3344,1.3239,1.324,1.324,1.324,0,0,1.2244,1.2396,1.2411,1.2465,1.2579,1.2642,1.2719,1.2816,1.2861,1.2942,1.3009,1.3127,1.314,1.3199,1.3245,1.3291,1.3337,1.3299,1.3303,1.3303,1.3434,1.3423,1.3432,1.3358,1.336,1.3362,1.3426,0,1.2297,1.2437,1.2501,1.2613,1.2688,1.2741,1.2809,1.2886,1.2942,1.3014,1.3077,1.3158,1.317,1.3206,1.3254,1.3321,1.3365,1.3318,1.3422,1.3425,1.3396,1.3444,1.3433,1.3489,1.3435,1.3437,1.3438,0,1.2378,1.246,1.2579,1.2685,1.2719,1.2778,1.2873,1.2941,1.3031,1.3068,1.3134,1.3178,1.3262,1.3256,1.3373,1.334,1.3386,1.3426,1.343,1.3442,1.3433,1.3457,1.3509,1.3517,1.3453,1.3452,1.345,0,1.2373,1.2513,1.2603,1.2647,1.2773,1.2813,1.2868,1.2956,1.3011,1.3093,1.313,1.3221,1.3271,1.3342,1.3409,1.3398,1.352,1.352,1.3554,1.3552,1.3577,1.3575,1.3636,1.3607,1.3607,1.3606,1.3606,0,1.2426,1.2497,1.2603,1.2658,1.2739,1.2812,1.2891,1.2949,1.3027,1.3095,1.3147,1.321,1.3296,1.3369,1.3423,1.3512,1.3534,1.3567,1.3581,1.3563,1.3559,1.3594,1.3592,1.3609,1.3608,1.3608,1.3607,0,1.2434,1.2508,1.2609,1.272,1.275,1.2805,1.29,1.2956,1.3015,1.31,1.3124,1.3217,1.3306,1.3381,1.3498,1.3535,1.3628,1.3643,1.3597,1.3604,1.3635,1.3631,1.3721,1.3737,1.3696,1.3697,1.3697,0,1.2462,1.2518,1.2636,1.2685,1.2739,1.2817,1.2873,1.2947,1.3004,1.311,1.3154,1.3247,1.3326,1.3466,1.3544,1.3635,1.3653,1.3679,1.3667,1.3647,1.3654,1.3649,1.3656,1.3679,1.3679,1.3679,1.3679,0,1.2506,1.254,1.2619,1.2711,1.2776,1.2852,1.293,1.2967,1.3056,1.3116,1.3209,1.327,1.339,1.3482,1.3581,1.3638,1.3674,1.3683,1.3695,1.3677,1.3649,1.3665,1.36,1.368,1.368,1.368,1.368,1.368,1.2525,1.2578,1.2669,1.2755,1.2822,1.2893,1.2951,1.3017,1.3096,1.3199,1.3238,1.3333,1.3422,1.3559,1.3616,1.3691,1.3696,1.3714,1.3719,1.3722,1.372,1.3636,1.371,1.371,1.371,1.371,1.371,0,1.2571,1.2633,1.2712,1.2819,1.2887,1.2915,1.3002,1.3057,1.314,1.322,1.3296,1.3403,1.3493,1.3578,1.3672,1.3716,1.3735,1.3739,1.3736,1.3749,1.371,1.369,1.3722,1.3722,1.3722,1.3722,1.3722,1.3722,1.2603,1.2694,1.2739,1.2863,1.2925,1.3017,1.3065,1.3132,1.3196,1.3312,1.3387,1.3442,1.3525,1.3626,1.371,1.3733,1.3765,1.3764,1.3791,1.3754,1.3751,1.3749,1.3731,1.3771,1.3771,1.3824,1.3824,1.3825]},{"header":{"parameterUnit":"m.s-1","parameterCategory":1,"la1":30.2991,"la2":30.254,"lo1":-89.0895,"lo2":-89.0444,"dy":0.0017,"dx":0.0017,"nx":28,"ny":28,"refTime":"2025-04-27T21:00:00:Z","depth":0,"parameterNumber":3,"parameterNumberName":"V-component_of_WINDS"},"data":[0,0,0,0,0,0,0,0,0,0,0,0,0,0,0,0,0,0,0,0,0,0,0,0,0,0,0,0,0,0,0,0,0,0,0,0,0,0,0,0,0,0,0,0,0,0,0,0,0,0,0,0,0,0,0,0,0,0,4.4387,4.4387,0,4.4346,4.4346,4.4345,4.4327,4.4327,4.4327,4.4327,4.4279,4.4278,4.4277,0,0,0,0,0,0,0,0,0,0,0,0,0,4.4445,4.4445,4.4387,4.4387,4.4386,4.4346,4.4346,4.4345,4.4327,4.4327,4.4327,4.4327,4.428,4.4278,4.4277,0,0,0,0,0,0,0,0,0,0,0,0,0,4.4414,4.4444,4.4387,4.4372,4.4371,4.4347,4.4346,4.4345,4.4327,4.4327,4.4327,4.4327,4.428,4.4278,4.4276,4.4262,0,0,4.427,4.4269,0,0,0,0,0,0,0,0,4.4416,4.4412,4.4375,4.4373,4.4371,4.4342,4.4349,4.4317,4.4327,4.4343,4.4327,4.4327,4.43,4.4296,4.4288,4.426,4.4258,4.427,4.4269,4.4268,4.4267,0,0,0,0,0,0,0,4.4418,4.4413,4.4371,4.4375,4.4372,4.4366,4.4362,4.4343,4.4321,4.4342,4.434,4.4336,4.4299,4.429,4.4287,4.4257,4.427,4.4268,4.4267,4.4266,4.4217,4.4217,0,0,0,0,0,0,4.4423,4.4415,4.4372,4.437,4.4394,4.4365,4.436,4.4351,4.4321,4.4317,4.4336,4.4335,4.4293,4.4289,4.4285,4.4267,4.4268,4.4266,4.4265,4.4217,4.4217,4.4217,0,0,0,0,0,0,4.4424,4.442,4.4374,4.4392,4.4386,4.4364,4.4354,4.435,4.4342,4.4317,4.4313,4.4332,4.4293,4.4288,4.4269,4.4265,4.4265,4.4263,4.4217,4.4217,4.4217,4.4232,0,0,0,0,0,0,4.4426,4.442,4.4415,4.4392,4.4385,4.436,4.4354,4.4349,4.4339,4.4338,4.4312,4.4307,4.4293,4.4272,4.4267,4.4263,4.4262,4.4217,4.4217,4.4217,4.4231,4.4232,4.4233,0,0,0,0,0,4.4428,4.442,4.4415,4.441,4.4379,4.436,4.4355,4.434,4.4339,4.4333,4.4318,4.4308,4.4267,4.427,4.4264,4.4259,4.4217,4.4217,4.4217,4.4231,4.4232,4.4233,0,0,0,0,0,0,4.444,4.4416,4.4411,4.4395,4.438,4.4356,4.4349,4.4341,4.4325,4.4324,4.4304,4.4299,4.4282,4.4268,4.4272,4.4245,4.4241,4.424,4.4254,4.4255,4.4255,4.4258,4.426,0,0,0,0,0,4.4442,4.4429,4.4408,4.4396,4.4389,4.4371,4.4361,4.4352,4.4334,4.4327,4.431,4.4292,4.4275,4.4264,4.4247,4.423,4.4224,4.4224,4.4224,4.4225,4.4224,4.4214,4.4214,4.4216,4.4216,4.4216,0,0,4.4443,4.4428,4.4421,4.4398,4.4385,4.4372,4.4365,4.4351,4.434,4.4324,4.4306,4.4293,4.4272,4.4254,4.4245,4.4242,4.4222,4.4225,4.4225,4.4224,4.4214,4.4214,4.4214,4.4216,4.4216,4.4216,0,0,4.4439,4.4427,4.4416,4.4404,4.4385,4.4374,4.4371,4.4349,4.4341,4.4323,4.4311,4.4298,4.4269,4.4255,4.4243,4.4237,4.4227,4.4231,4.4234,4.4225,4.4225,4.4225,4.4223,4.4222,4.423,4.423,4.423,0,4.4443,4.4424,4.4411,4.4398,4.4388,4.4376,4.4364,4.4352,4.4328,4.4321,4.4319,4.4284,4.4269,4.4248,4.4247,4.4238,4.4234,4.4234,4.4227,4.4226,4.4226,4.4224,4.4223,4.4231,4.4231,4.4231,4.4231,0,4.4429,4.4416,4.4409,4.439,4.4379,4.4366,4.4351,4.4341,4.4333,4.4321,4.4303,4.4285,4.4265,4.4259,4.4249,4.4237,4.4236,4.4231,4.4227,4.4227,4.4224,4.4223,4.4232,4.4232,4.4232,4.4231,0,0,4.443,4.4405,4.4403,4.4394,4.4374,4.4363,4.435,4.4332,4.4325,4.4309,4.4297,4.4275,4.427,4.4258,4.4247,4.4239,4.4236,4.4235,4.4234,4.4236,4.4221,4.4225,4.4225,4.423,4.423,4.4229,4.4223,0,4.4423,4.4402,4.4391,4.4373,4.4361,4.435,4.4339,4.4325,4.4314,4.4301,4.4288,4.4273,4.4268,4.4261,4.4253,4.4238,4.4232,4.4238,4.4218,4.4217,4.4223,4.4223,4.4227,4.4222,4.4222,4.4222,4.4222,0,4.4412,4.4399,4.4382,4.4364,4.4359,4.4349,4.4333,4.4321,4.4305,4.4297,4.4285,4.4275,4.426,4.4258,4.4238,4.4242,4.4233,4.4225,4.4224,4.4221,4.4219,4.422,4.422,4.4219,4.422,4.422,4.422,0,4.4415,4.4393,4.438,4.4373,4.4352,4.4346,4.4336,4.4321,4.4311,4.4296,4.429,4.4273,4.4264,4.4251,4.4236,4.4236,4.4217,4.4213,4.421,4.421,4.4205,4.4206,4.4204,4.42,4.42,4.42,4.42,0,4.4408,4.4398,4.4381,4.4373,4.4361,4.4348,4.4336,4.4326,4.4312,4.4301,4.429,4.428,4.4261,4.4248,4.4237,4.4222,4.4217,4.421,4.4207,4.4211,4.4212,4.4204,4.4204,4.42,4.42,4.42,4.42,0,4.4408,4.4397,4.4382,4.4365,4.436,4.4353,4.4337,4.4328,4.4318,4.4304,4.43,4.4283,4.4267,4.4252,4.423,4.4222,4.4208,4.4203,4.4214,4.4212,4.4209,4.421,4.4202,4.42,4.4198,4.4198,4.4198,0,4.4405,4.4397,4.438,4.4373,4.4365,4.4353,4.4344,4.4332,4.4323,4.4305,4.4298,4.4283,4.4269,4.4245,4.4229,4.4213,4.4208,4.4207,4.4205,4.421,4.4208,4.4209,4.4208,4.4207,4.4207,4.4207,4.4207,0,4.44,4.4395,4.4384,4.4371,4.4362,4.435,4.4339,4.4333,4.4318,4.4308,4.4294,4.4284,4.4263,4.4248,4.423,4.4219,4.421,4.4208,4.4206,4.421,4.4217,4.4213,4.4215,4.4208,4.4208,4.4208,4.4208,4.4208,4.4398,4.4391,4.4379,4.4367,4.4357,4.4347,4.4339,4.4328,4.4316,4.43,4.4293,4.4278,4.4263,4.4239,4.4228,4.4216,4.4214,4.4211,4.421,4.421,4.4211,4.4219,4.4213,4.4213,4.4213,4.4213,4.4213,0,4.4393,4.4385,4.4374,4.4359,4.435,4.4346,4.4333,4.4325,4.4313,4.43,4.4288,4.4272,4.4257,4.4242,4.4226,4.4219,4.4215,4.4215,4.4215,4.4213,4.4214,4.4217,4.4219,4.4219,4.4219,4.4219,4.4219,4.4219,4.4389,4.4377,4.4371,4.4355,4.4346,4.4334,4.4327,4.4317,4.4308,4.429,4.4279,4.427,4.4256,4.424,4.4226,4.4222,4.4216,4.4218,4.4213,4.4213,4.4213,4.4212,4.4215,4.4217,4.4217,4.4213,4.4213,4.4213]}]]